Flag for Canada Weather past 2 weeks in Burnaby, British Columbia, Canada

Now
52 °F

Passing clouds.


Feels Like: 49 °F
Forecast: 48 / 59 °F
Wind: 8 mph from East

Location: Vancouver International Airport

Current Time: Sep 3, 2015 at 4:28:54 AM

Latest Report: Sep 3, 2015 at 4:00 AM


Visibility: 15 mi

Pressure: 29.94 "Hg

Humidity: 88%

Dew point: 48 °F

Location of BurnabyLocation

Historic Weather in Burnaby — Graph

°F

Burnaby temperature yesterday

Maximum temperature yesterday: 61 °F (at 2:00 PM)
Minimum temperature yesterday: 50 °F (at 6:00 AM)
Average temperature yesterday: 56 °F

Past Weeks' High & Low Weather Summary

 TemperatureHumidityPressure
High75 °F (Aug 19, 5:00 PM)100% (Aug 28, 7:56 AM)30.13 "Hg (Aug 28, 7:56 AM)
Low50 °F (Sep 2, 6:00 AM)41% (Aug 24, 5:00 PM)29.40 "Hg (Aug 29, 12:00 PM)
Average63 °F75%29.90 "Hg
* Reported Aug 19 3:00 AM — Sep 3 3:00 AM, Burnaby, Weather by CustomWeather, © 2015

Note: Actual official high and low records may vary slightly from our data, if they occured in-between our weather recording intervals... More about our weather records

Advertising

Burnaby weather history for previous 24 hours

 ConditionsComfort  
Time TempWeatherWind HumidityBarometerVisibility
3:00 AM
Thu, Sep 3
52 °FPassing clouds.7 mph88%29.93 "Hg15 mi
2:00 AM52 °FPassing clouds.10 mph88%29.93 "Hg15 mi
1:00 AM54 °FPassing clouds.9 mph88%29.93 "Hg15 mi
12:00 AM54 °FPassing clouds.10 mph88%29.92 "Hg15 mi
11:00 PM
Wed, Sep 2
54 °FPassing clouds.10 mph88%29.93 "Hg20 mi
10:00 PM54 °FPassing clouds.10 mph82%29.93 "Hg20 mi
9:00 PM54 °FPassing clouds.12 mph82%29.93 "Hg20 mi
8:00 PM55 °FPartly sunny.15 mph77%29.92 "Hg20 mi
7:00 PM57 °FScattered showers. Partly sunny.13 mph67%29.91 "Hg20 mi
6:00 PM59 °FBroken clouds.14 mph68%29.90 "Hg20 mi
5:00 PM59 °FPartly sunny.15 mph59%29.90 "Hg20 mi
4:00 PM61 °FBroken clouds.12 mph63%29.90 "Hg20 mi
3:00 PM59 °FPartly sunny.13 mph68%29.89 "Hg15 mi
2:00 PM61 °FBroken clouds.12 mph59%29.89 "Hg15 mi
1:00 PM59 °FBroken clouds.18 mph63%29.88 "Hg15 mi
12:00 PM59 °FPartly sunny.9 mph77%29.88 "Hg15 mi
11:00 AM59 °FBroken clouds.9 mph68%29.87 "Hg15 mi
10:00 AM57 °FBroken clouds.9 mph82%29.85 "Hg15 mi
9:00 AM54 °FLight rain. Partly sunny.9 mph88%29.84 "Hg15 mi
8:00 AM54 °FRain. More clouds than sun.9 mph94%29.84 "Hg8 mi
7:48 AM52 °FRain. Mostly cloudy.12 mph94%29.84 "Hg12 mi
7:00 AM52 °FFog.8 mph94%29.81 "Hg15 mi
6:00 AM50 °FPassing clouds.7 mph94%29.80 "Hg15 mi
5:00 AM54 °FPassing clouds.2 mph77%29.78 "Hg15 mi
4:00 AM54 °FPassing clouds.8 mph82%29.76 "Hg15 mi
Weather by CustomWeather, © 2015

See weather overviewHow to use our weather pages